Location: Brunsbüttel
(52.3892°N, 10.6138°E)
Time: 23:28:37
(UTC+00:00)

SWARM A - Pass Details

Date: 19 May 2025
Orbit: 436 x 441 km, 87.3° (Epoch: 22 June)

Event Time Altitude Azimuth Distance (km) Brightness Sun altitude
Exits shadow 20:49:59 16° 169° (S) 1,266 6.0 -11.2°
Maximum altitude 20:52:37 65° 90° (E) 496 4.3 -11.4°
Drops below altitude 10° 20:56:00 10° 8° (N) 1,578 7.8 -11.7°
Sets 20:58:04 0° 6° (N) 2,454 8.9 -11.8°
